Location: Roland
(31.1349°N, 85.4372°W)
Time: 16:36:23
(UTC+00:00)

Transit 2A - Pass Details

Date: 26 April 2021
Orbit: 602 x 957 km, 66.7° (Epoch: 16 May)

Event Time Altitude Azimuth Distance (km) Brightness Sun altitude
Rises 09:21:08 0° 159° (SSE) 3,171 9.1 -20.5°
Reaches altitude 10° 09:25:07 10° 129° (SE) 2,163 8.6 -19.8°
Maximum altitude 09:26:55 12° 107° (ESE) 1,995 8.7 -19.4°
Drops below altitude 10° 09:28:40 10° 85° (E) 2,093 9.2 -19.1°
Sets 09:32:20 0° 54° (NE) 2,942 10.7 -18.4°
